Regional Weather Roundup
Issued by NWS

Home | Current Version | Previous Version | Text Only | Print | Product List | Glossary On
Versions: 1 2 3 4 5 6 7 8 9 10 11 12 13 14 15 16 17 18 19 20 21 22 23 24 25 26 27 28 29 30 31 32 33 34 35 36 37 38 39 40 41 42 43 44 45 46 47 48 49 50
000
ASUS43 KLSX 302310
RWRMO

WEATHER SUMMARY FOR MISSOURI
NATIONAL WEATHER SERVICE SPRINGFIELD MO
600 PM CDT TUE AUG 30 2016

NOTE: "FAIR" INDICATES FEW OR NO CLOUDS BELOW 12,000 FEET WITH NO
       SIGNIFICANT WEATHER AND/OR OBSTRUCTIONS TO VISIBILITY.
       CURRENT SKY AND/OR WEATHER CONDITIONS ARE NOT AVAILABLE FOR
       CHILLICOTHE AND FARMINGTON.

MOZ001>031-035>038-043-044-053-054-310000-
...NORTHERN AND WESTERN MISSOURI...

CITY           SKY/WX    TMP DP  RH WIND       PRES   REMARKS
KANSAS CTY INT PTSUNNY   84  70  62 NE7       30.09S
KANSAS C DTWN  MOSUNNY   85  71  63 E7        30.07S HX  90
LEE`S SUMMIT   CLOUDY    84  71  65 NE8       30.09S
ST JOSEPH      PTSUNNY   82  71  69 N8        30.09F
CHILLICOTHE      N/A     84  74  71 N3        30.09F HX  91
KIRKSVILLE     MOSUNNY   81  71  71 N5        30.10S

$$
MOZ066>068-077>081-088>096-101>105-310000-
...SOUTHWEST MISSOURI...

CITY           SKY/WX    TMP DP  RH WIND       PRES   REMARKS
SPRINGFIELD    SUNNY     91  68  46 NE13      30.05F HX  95
JOPLIN         MOSUNNY   90  67  46 NE7       30.03F HX  93
BRANSON        MOSUNNY   86  72  62 E6        30.07S HX  92

$$
MOZ032>034-039>042-045>050-055>058-069>072-310000-
...CENTRAL MISSOURI...

CITY           SKY/WX    TMP DP  RH WIND       PRES   REMARKS
COLUMBIA       CLOUDY    76  72  87 SE6       30.10R
JEFFERSON CITY PTSUNNY   75  72  90 SE5       30.09S
ROLLA          CLOUDY    76  71  85 E8        30.08F
SEDALIA        CLOUDY    78  69  73 CALM      30.11S
WHITEMAN AFB   PTSUNNY   76  73  90 S10       30.09R THUNDER
OSAGE BEACH    LGT RAIN  76  73  91 N3        30.10S

$$
MOZ051-052-059>065-310000-
...EAST CENTRAL MISSOURI...

CITY           SKY/WX    TMP DP  RH WIND       PRES   REMARKS
ST LOUIS INTL  LGT RAIN  75  71  87 S5        30.07F
SPIRIT OF STL  CLOUDY    75  73  93 SW6       30.06R
ST CHARLES     LGT RAIN  74  74 100 E3        30.05F FOG

$$
MOZ072>076-082>087-097>100-106>115-310000-
...SOUTH CENTRAL AND SOUTHEAST MISSOURI...

CITY           SKY/WX    TMP DP  RH WIND       PRES   REMARKS
CAPE GIRARDEAU SUNNY     90  71  53 NE6       30.02S HX  96
FARMINGTON     PTSUNNY   77  69  76 N9        30.10F
POPLAR BLUFF   SUNNY     90  74  59 NE6       30.01S HX  99
WEST PLAINS    SUNNY     88  69  53 E5        30.08S HX  92

$$




USA.gov is the U.S. government's official web portal to all federal, state and local government web resources and services.